Russellville, AR

12:56 AM CDT on October 01, 2016 (GMT -0500)
Russellville Regional

Weather History for KRUE - February, 2013

Change the Weather History Date:

Saturday, February 23, 2013

  Actual Average (KHOT) Record (KHOT)
Temperature  
Mean Temperature 37 °F -  
Max Temperature 48 °F 58 °F 83 °F (1982)
Min Temperature 26 °F 36 °F 13 °F (1989)
Degree Days  
Heating Degree Days 28    
Moisture  
Dew Point 28 °F    
Average Humidity 74    
Maximum Humidity 92    
Minimum Humidity 39    
Precipitation  
Precipitation 0.00 in - - ()
Sea Level Pressure  
Sea Level Pressure 30.03 in    
Wind  
Wind Speed 1 mph (NW)    
Max Wind Speed 9 mph    
Max Gust Speed -    
Visibility 8 miles    
Events      
Averages and records for this station are not official NWS values.
T = Trace of Precipitation, MM = Missing Value Source: NWS Daily Summary

Daily Weather History Graph

Daily Weather History Graph

Search for Another Location

Airport or City:

Trip Planner

Search our weather history database for the weather conditions in past years. The results will help you decide how hot, cold, wet, or windy it might be!

Date:

Astronomy

Feb. 23, 2013 Rise Set
Actual Time 6:49 AM CST 6:02 PM CST
Civil Twilight 6:23 AM CST 6:28 PM CST
Nautical Twilight 5:54 AM CST 6:57 PM CST
Astronomical Twilight 5:24 AM CST 7:27 PM CST
Moon 4:15 PM CST (2/23) 5:09 AM CST (2/23)
Length of Visible Light 12h 04m
Length of Day
11h 13m
Waxing Gibbous, 95% of the Moon is Illuminated
Feb 23
Waxing Gibbous
Feb 25
Full
Mar 4
Last Quarter
Mar 11
New
Mar 19
First Quarter

Hourly Weather History & Observations

Time (CST) Temp. Windchill Dew Point Humidity Pressure Visibility Wind Dir Wind Speed Gust Speed Precip Events Conditions
12:53 AM 34.0 °F - 28.9 °F 82% 30.10 in 10.0 mi Calm Calm - N/A   Overcast
1:42 AM 33.8 °F 30.8 °F 26.6 °F 75% 30.09 in 10.0 mi NNW 3.5 mph - N/A   Scattered Clouds
1:53 AM 33.1 °F 30.0 °F 27.0 °F 78% 30.08 in 10.0 mi North 3.5 mph - N/A   Clear
2:53 AM 32.0 °F - 26.1 °F 79% 30.06 in 9.0 mi Calm Calm - N/A   Clear
3:53 AM 28.0 °F - 26.1 °F 92% 30.04 in 4.0 mi Calm Calm - N/A   Clear
4:53 AM 27.0 °F - 25.0 °F 92% 30.05 in 3.0 mi Calm Calm - N/A   Clear
5:53 AM 27.0 °F - 25.0 °F 92% 30.05 in 3.0 mi Calm Calm - N/A   Clear
6:53 AM 26.1 °F - 24.1 °F 92% 30.04 in 2.5 mi Calm Calm - N/A   Clear
7:53 AM 30.0 °F - 27.0 °F 88% 30.06 in 3.0 mi Calm Calm - N/A   Clear
8:53 AM 34.0 °F - 28.9 °F 82% 30.08 in 6.0 mi Calm Calm - N/A   Haze
9:53 AM 37.0 °F - 27.0 °F 67% 30.08 in 10.0 mi Calm Calm - N/A   Clear
10:53 AM 39.0 °F - 28.0 °F 65% 30.09 in 10.0 mi Calm Calm - N/A   Clear
11:53 AM 43.0 °F - 30.0 °F 60% 30.06 in 10.0 mi Calm Calm - N/A   Clear
12:53 PM 46.0 °F 41.9 °F 30.0 °F 54% 30.01 in 10.0 mi NW 8.1 mph - N/A   Clear
1:53 PM 46.9 °F - 30.0 °F 52% 30.01 in 10.0 mi West 8.1 mph - N/A   Clear
2:53 PM 48.0 °F - 28.9 °F 48% 29.99 in 10.0 mi WNW 9.2 mph - N/A   Clear
3:53 PM 48.9 °F - 27.0 °F 43% 29.96 in 10.0 mi Calm Calm - N/A   Scattered Clouds
4:53 PM 48.9 °F - 25.0 °F 39% 29.95 in 10.0 mi WNW 8.1 mph - N/A   Clear
5:53 PM 45.0 °F - 28.9 °F 53% 29.94 in 10.0 mi Calm Calm - N/A   Clear
6:53 PM 37.0 °F - 30.9 °F 79% 29.98 in 10.0 mi Calm Calm - N/A   Clear
7:53 PM 34.0 °F - 30.0 °F 85% 29.99 in 10.0 mi Calm Calm - N/A   Clear
8:53 PM 32.0 °F - 30.0 °F 92% 30.01 in 10.0 mi Calm Calm - N/A   Clear
9:53 PM 32.0 °F - 28.0 °F 85% 29.99 in 10.0 mi Calm Calm - N/A   Clear
10:53 PM 30.0 °F - 28.0 °F 92% 30.00 in 10.0 mi Calm Calm - N/A   Clear
11:53 PM 30.9 °F - 28.0 °F 89% 30.01 in 10.0 mi Calm Calm - N/A   Clear